�N����,����,�~����,�C��,���x,�C��,����,���ϕ���,�ő�u�ԕ���,�ő厞����,���˗�,�I�_���x,�n�����x,�ő啗���N��,DTYPE
"19/01/21","00:10",0.0,4.7,83.9,1007.6,309.9,3.9,7.4,321.8,0.00,2.3,6.4,"00:02:08",1
"19/01/21","00:20",0.0,4.8,84.0,1007.6,316.8,4.4,6.8,323.3,0.00,2.4,6.7,"00:17:16",1
"19/01/21","00:30",0.0,4.8,83.7,1007.6,317.1,3.9,6.7,323.1,0.00,2.3,6.3,"00:21:20",1
"19/01/21","00:40",0.0,4.8,83.3,1007.6,313.5,2.7,4.9,286.6,0.00,2.3,6.3,"00:32:00",1
"19/01/21","00:50",0.0,4.8,83.8,1007.8,324.8,4.1,7.8,337.5,0.00,2.3,6.3,"00:42:08",1
"19/01/21","01:00",0.0,4.4,85.3,1008.1,319.4,3.5,6.4,287.8,0.00,2.2,6.2,"00:53:38",1
"19/01/21","01:10",0.0,4.2,86.5,1008.3,323.2,3.1,5.1,322.9,0.00,2.2,6.2,"01:09:50",1
"19/01/21","01:20",0.0,4.2,87.4,1008.1,313.1,3.4,5.5,323.4,0.00,2.3,6.2,"01:13:22",1
"19/01/21","01:30",0.0,4.3,87.6,1008.1,313.8,3.4,6.6,314.0,0.00,2.5,6.3,"01:24:20",1
"19/01/21","01:40",0.0,4.2,87.8,1008.1,288.8,2.1,3.9,262.3,0.00,2.4,6.2,"01:35:26",1
"19/01/21","01:50",0.0,4.2,87.9,1008.3,294.3,2.7,5.0,342.5,0.00,2.4,6.0,"01:46:44",1
"19/01/21","02:00",0.0,4.2,87.8,1008.6,298.5,1.3,2.0,290.6,0.00,2.4,6.1,"01:51:36",1
"19/01/21","02:10",0.0,4.1,87.6,1008.6,296.2,1.6,3.9,337.3,0.00,2.3,6.2,"02:01:58",1
"19/01/21","02:20",0.0,4.1,87.5,1008.3,309.2,2.6,5.1,329.2,0.00,2.3,6.2,"02:17:04",1
"19/01/21","02:30",0.0,4.2,87.9,1008.6,307.9,3.2,5.2,331.3,0.00,2.4,6.0,"02:28:46",1
"19/01/21","02:40",0.2,4.2,88.2,1008.8,300.2,3.5,7.0,333.7,0.00,2.5,6.0,"02:39:54",1
"19/01/21","02:50",0.0,3.9,88.9,1009.0,298.3,3.0,4.9,323.7,0.00,2.3,6.0,"02:40:46",1
"19/01/21","03:00",0.0,3.7,89.6,1008.8,307.2,3.0,4.7,320.7,0.00,2.2,5.7,"02:55:38",1
"19/01/21","03:10",0.0,3.6,90.2,1009.0,308.3,3.7,6.6,343.2,0.00,2.2,6.0,"03:03:38",1
"19/01/21","03:20",0.0,3.3,90.7,1008.8,303.4,3.2,6.0,329.1,0.00,2.0,6.0,"03:12:20",1
"19/01/21","03:30",0.0,3.2,91.2,1008.6,308.5,3.2,5.6,337.4,0.00,1.9,5.8,"03:22:34",1
"19/01/21","03:40",0.0,3.2,91.3,1008.8,303.1,2.8,4.5,315.8,0.00,2.0,5.9,"03:31:04",1
"19/01/21","03:50",0.0,3.2,91.2,1008.8,313.5,3.1,5.6,337.0,0.00,1.9,5.9,"03:43:44",1
"19/01/21","04:00",0.0,3.0,90.9,1008.8,281.6,1.3,2.4,313.5,0.00,1.7,5.9,"03:54:24",1
"19/01/21","04:10",0.0,2.6,90.8,1008.3,240.9,0.7,2.1,257.2,0.00,1.3,5.6,"04:00:02",1
"19/01/21","04:20",0.0,2.7,91.7,1008.8,264.3,2.0,2.9,257.5,0.00,1.5,5.9,"04:16:16",1
"19/01/21","04:30",0.0,2.8,91.6,1008.6,260.4,2.5,4.2,258.7,0.00,1.6,5.7,"04:20:16",1
"19/01/21","04:40",0.0,2.7,91.4,1008.8,281.3,2.0,2.7,262.7,0.00,1.5,5.5,"04:32:56",1
"19/01/21","04:50",0.0,2.8,91.7,1008.6,288.6,2.5,4.0,276.9,0.00,1.6,5.5,"04:41:38",1
"19/01/21","05:00",0.0,2.8,91.7,1009.0,293.4,2.3,3.2,301.2,0.00,1.6,5.4,"04:56:22",1
"19/01/21","05:10",0.0,2.9,91.9,1009.0,303.5,2.8,4.3,314.9,0.00,1.8,5.7,"05:09:22",1
"19/01/21","05:20",0.0,3.0,91.9,1009.0,306.7,2.6,4.1,331.5,0.00,1.9,5.6,"05:14:40",1
"19/01/21","05:30",0.0,2.9,92.1,1009.0,305.6,3.0,4.7,323.8,0.00,1.8,5.6,"05:24:50",1
"19/01/21","05:40",0.0,3.0,92.4,1009.0,306.4,2.8,4.3,322.0,0.00,1.9,5.5,"05:32:58",1
"19/01/21","05:50",0.0,3.0,92.5,1009.3,313.4,3.0,4.3,326.7,0.00,1.9,5.6,"05:40:48",1
"19/01/21","06:00",0.0,2.9,92.6,1009.3,317.6,2.5,3.6,311.8,0.00,1.9,5.7,"05:53:04",1
"19/01/21","06:10",0.0,2.9,92.8,1009.5,315.6,2.7,4.4,331.1,0.00,1.9,5.6,"06:07:50",1
"19/01/21","06:20",0.0,2.9,92.9,1009.5,309.4,2.5,4.0,325.3,0.00,1.9,5.3,"06:12:16",1
"19/01/21","06:30",0.0,2.8,93.0,1009.5,315.0,2.2,3.4,320.1,0.00,1.8,5.4,"06:27:56",1
"19/01/21","06:40",0.0,2.8,93.0,1009.5,319.1,2.7,4.0,333.0,0.00,1.8,5.6,"06:34:52",1
"19/01/21","06:50",0.0,2.7,93.1,1009.7,320.2,3.1,5.4,322.3,0.00,1.7,5.5,"06:42:48",1
"19/01/21","07:00",0.0,2.7,93.4,1009.7,307.3,2.7,4.2,322.9,0.00,1.8,5.5,"06:58:12",1
"19/01/21","07:10",0.0,2.8,93.3,1010.2,295.5,3.0,5.1,331.9,0.00,1.9,5.5,"07:00:32",1
"19/01/21","07:20",0.0,2.8,93.2,1010.0,296.6,3.1,4.5,329.6,0.00,1.9,5.3,"07:12:06",1
"19/01/21","07:30",0.0,3.1,93.1,1010.2,291.6,3.4,7.7,305.7,0.00,2.1,5.4,"07:23:54",1
"19/01/21","07:40",0.0,3.0,92.9,1010.2,298.0,3.1,5.9,304.0,0.00,2.0,5.4,"07:31:26",1
"19/01/21","07:50",0.0,3.0,92.9,1010.0,298.5,3.5,4.8,288.5,0.00,2.0,5.2,"07:47:36",1
"19/01/21","08:00",0.0,3.2,92.9,1010.4,290.1,3.0,3.9,310.3,0.00,2.2,5.5,"07:57:28",1
"19/01/21","08:10",0.0,3.3,92.5,1010.2,293.6,2.3,4.2,312.2,0.00,2.2,5.4,"08:04:56",1
"19/01/21","08:20",0.0,3.6,91.9,1011.2,289.4,2.6,4.0,306.8,0.02,2.4,5.4,"08:11:04",1
"19/01/21","08:30",0.0,4.1,90.7,1010.7,300.9,3.4,5.5,331.2,0.04,2.8,5.5,"08:22:00",1
"19/01/21","08:40",0.0,4.1,89.3,1010.9,303.9,3.6,6.2,324.0,0.02,2.5,5.5,"08:34:58",1
"19/01/21","08:50",0.0,4.0,89.1,1011.2,292.1,3.4,5.9,305.6,0.03,2.4,5.3,"08:43:04",1
"19/01/21","09:00",0.0,4.5,88.1,1010.9,288.8,3.5,6.2,285.9,0.07,2.7,5.4,"08:52:00",1
"19/01/21","09:10",0.0,4.9,87.0,1011.2,288.4,3.5,5.6,316.3,0.10,3.0,5.4,"09:08:30",1
"19/01/21","09:20",0.0,5.1,85.1,1011.4,293.5,3.5,5.7,323.4,0.12,2.8,5.5,"09:16:04",1
"19/01/21","09:30",0.0,5.3,84.3,1011.6,291.8,3.4,7.3,321.8,0.15,2.9,5.6,"09:23:00",1
"19/01/21","09:40",0.0,5.4,82.5,1011.4,277.4,2.7,4.5,303.2,0.09,2.7,5.7,"09:39:50",1
"19/01/21","09:50",0.0,5.1,82.4,1011.9,280.6,3.2,5.9,303.6,0.05,2.4,5.8,"09:42:26",1
"19/01/21","10:00",0.0,5.1,82.3,1011.6,277.5,3.2,7.5,315.9,0.05,2.4,5.8,"09:50:02",1
"19/01/21","10:10",0.0,5.6,82.5,1011.9,295.8,3.6,7.3,304.4,0.13,2.9,5.7,"10:05:54",1
"19/01/21","10:20",0.0,6.2,80.2,1012.1,285.4,3.5,7.1,317.4,0.27,3.1,6.2,"10:14:06",1
"19/01/21","10:30",0.0,6.2,78.9,1012.3,285.6,3.0,4.5,307.8,0.25,2.9,6.1,"10:29:54",1
"19/01/21","10:40",0.0,6.1,78.1,1011.9,321.2,4.0,8.6,342.1,0.24,2.6,6.2,"10:37:36",1
"19/01/21","10:50",0.0,6.1,76.7,1011.9,307.2,4.4,8.8,333.1,0.22,2.4,6.4,"10:49:02",1
"19/01/21","11:00",0.0,7.1,75.9,1012.1,294.2,3.9,8.7,336.4,0.34,3.2,6.6,"10:50:24",1
"19/01/21","11:10",0.0,7.0,74.5,1012.1,319.8,4.5,7.3,340.5,0.33,2.8,6.6,"11:02:16",1
"19/01/21","11:20",0.0,6.9,74.1,1012.1,308.1,3.7,6.6,337.7,0.25,2.7,7.0,"11:11:52",1
"19/01/21","11:30",0.0,7.7,74.1,1012.1,275.9,3.6,5.9,229.9,0.38,3.4,6.9,"11:20:16",1
"19/01/21","11:40",0.0,7.6,72.6,1011.9,294.4,2.7,4.8,325.1,0.42,3.0,7.3,"11:34:40",1
"19/01/21","11:50",0.0,7.4,71.7,1011.4,287.8,2.8,5.4,331.8,0.31,2.7,7.5,"11:43:36",1
"19/01/21","12:00",0.0,7.4,72.4,1011.2,290.1,2.7,5.7,238.8,0.19,2.8,7.7,"11:50:16",1
"19/01/21","12:10",0.0,8.2,70.2,1011.2,307.5,2.8,5.5,334.5,0.42,3.1,7.9,"12:05:28",1
"19/01/21","12:20",0.0,8.7,68.2,1010.4,295.9,2.1,4.8,311.9,0.44,3.2,7.8,"12:17:44",1
"19/01/21","12:30",0.0,8.7,65.4,1010.4,312.3,2.6,5.1,331.6,0.43,2.6,8.0,"12:22:16",1
"19/01/21","12:40",0.0,8.2,63.1,1010.2,279.5,3.0,5.2,347.2,0.26,1.6,8.5,"12:31:36",1
"19/01/21","12:50",0.0,8.5,62.7,1010.4,273.4,3.0,5.0,296.9,0.23,1.8,8.4,"12:40:16",1
"19/01/21","13:00",0.0,8.0,63.7,1010.2,281.6,3.2,5.2,308.5,0.17,1.6,8.6,"12:56:16",1
"19/01/21","13:10",0.0,8.0,63.5,1009.5,293.8,3.4,5.7,309.2,0.08,1.5,8.6,"13:06:56",1
"19/01/21","13:20",0.0,7.8,64.2,1009.5,292.5,3.6,6.3,311.0,0.12,1.5,8.5,"13:10:32",1
"19/01/21","13:30",0.0,8.0,65.0,1009.5,302.5,3.1,5.5,259.1,0.15,1.9,8.3,"13:20:02",1
"19/01/21","13:40",0.0,8.0,65.4,1009.3,297.5,4.4,8.2,346.1,0.12,2.0,8.5,"13:38:00",1
"19/01/21","13:50",0.0,7.5,65.9,1009.5,317.0,4.1,6.6,329.9,0.06,1.6,8.5,"13:40:16",1
"19/01/21","14:00",0.0,7.2,70.3,1009.5,318.0,4.4,6.3,331.2,0.09,2.2,8.6,"13:57:28",1
"19/01/21","14:10",0.0,7.3,73.5,1009.3,326.0,4.0,7.3,339.8,0.13,2.9,8.4,"14:00:24",1
"19/01/21","14:20",0.0,7.6,72.5,1009.0,324.8,4.4,7.1,334.1,0.18,3.0,8.4,"14:18:56",1
"19/01/21","14:30",0.0,8.2,69.1,1008.8,286.0,2.8,4.9,337.5,0.31,2.9,8.5,"14:21:04",1
"19/01/21","14:40",0.0,8.4,68.2,1009.3,279.0,2.2,3.6,308.9,0.25,2.9,8.7,"14:34:56",1
"19/01/21","14:50",0.0,8.2,67.4,1008.8,279.0,2.7,4.1,311.2,0.21,2.6,8.7,"14:42:16",1
"19/01/21","15:00",0.0,9.0,65.7,1009.0,279.9,2.6,4.9,302.5,0.28,3.0,8.8,"14:55:36",1
"19/01/21","15:10",0.0,9.2,63.2,1009.3,264.5,3.2,8.8,323.9,0.32,2.6,8.9,"15:06:24",1
"19/01/21","15:20",0.2,9.2,62.2,1009.5,272.7,3.4,6.4,286.5,0.27,2.4,8.9,"15:17:04",1
"19/01/21","15:30",0.0,9.0,61.6,1009.3,286.7,2.7,4.9,282.8,0.13,2.1,8.9,"15:20:16",1
"19/01/21","15:40",0.0,8.7,62.2,1009.3,295.7,3.4,5.8,314.8,0.06,1.9,8.9,"15:39:36",1
"19/01/21","15:50",0.0,8.5,62.4,1008.8,327.2,3.9,5.2,328.4,0.07,1.8,9.0,"15:40:40",1
"19/01/21","16:00",0.0,8.7,61.2,1008.8,324.2,4.1,7.8,332.5,0.07,1.7,9.0,"15:51:52",1
"19/01/21","16:10",0.0,8.7,61.0,1009.3,316.1,4.0,5.9,326.2,0.06,1.6,8.9,"16:06:32",1
"19/01/21","16:20",0.0,8.9,61.8,1009.0,323.5,3.4,7.2,348.4,0.05,2.0,8.9,"16:10:40",1
"19/01/21","16:30",0.0,8.5,61.9,1009.3,317.1,2.6,5.1,345.2,0.01,1.7,8.8,"16:26:08",1
"19/01/21","16:40",0.0,8.5,61.9,1009.0,299.9,2.6,4.5,310.9,0.00,1.7,8.7,"16:30:08",1
"19/01/21","16:50",0.0,8.3,62.5,1009.3,320.9,3.4,4.2,313.2,0.00,1.6,8.6,"16:46:48",1
"19/01/21","17:00",0.0,8.3,62.5,1009.3,311.5,3.0,4.9,333.0,0.00,1.6,8.4,"16:58:00",1
"19/01/21","17:10",0.0,8.0,62.5,1009.3,307.6,2.5,3.7,309.6,0.00,1.3,8.5,"17:00:08",1
"19/01/21","17:20",0.0,7.7,63.9,1009.3,308.0,2.2,3.3,331.2,0.00,1.3,8.5,"17:12:16",1
"19/01/21","17:30",0.0,7.3,65.6,1009.3,296.0,2.2,4.0,316.2,0.00,1.3,8.4,"17:25:04",1
"19/01/21","17:40",0.0,7.2,65.8,1008.8,275.1,1.8,3.1,266.5,0.00,1.3,8.2,"17:31:52",1
"19/01/21","17:50",0.0,6.8,67.5,1009.0,282.2,1.7,2.4,268.1,0.00,1.3,8.2,"17:49:52",1
"19/01/21","18:00",0.0,6.4,68.6,1008.8,287.3,2.0,2.5,304.7,0.00,1.1,8.0,"17:50:48",1
"19/01/21","18:10",0.0,5.6,71.1,1008.8,319.9,2.3,3.4,322.3,0.00,0.8,7.7,"18:02:00",1
"19/01/21","18:20",0.0,4.9,74.4,1009.0,309.9,2.1,4.4,314.3,0.00,0.8,7.9,"18:18:40",1
"19/01/21","18:30",0.0,4.5,75.9,1008.8,297.7,1.8,2.6,319.8,0.00,0.7,7.8,"18:22:40",1
"19/01/21","18:40",0.0,4.3,77.8,1009.3,297.9,1.8,2.7,315.1,0.00,0.8,7.5,"18:33:36",1
"19/01/21","18:50",0.0,4.2,79.4,1009.0,317.8,1.8,2.9,320.0,0.00,1.0,7.7,"18:45:20",1
"19/01/21","19:00",0.0,3.9,80.7,1009.0,301.3,2.0,2.8,321.8,0.00,0.9,7.3,"18:51:36",1
"19/01/21","19:10",0.0,3.4,81.9,1008.8,294.4,1.3,1.9,313.1,0.00,0.6,7.1,"19:00:02",1
"19/01/21","19:20",0.0,3.0,83.9,1008.8,297.9,1.8,2.2,316.6,0.00,0.6,7.2,"19:10:16",1
"19/01/21","19:30",0.0,2.8,85.5,1008.8,289.4,1.7,2.1,291.2,0.00,0.7,6.9,"19:21:36",1
"19/01/21","19:40",0.0,2.7,86.7,1008.6,288.2,1.3,2.0,322.3,0.00,0.7,7.0,"19:37:36",1
"19/01/21","19:50",0.0,2.6,87.3,1008.8,288.3,1.2,2.0,311.7,0.00,0.7,6.9,"19:41:28",1
"19/01/21","20:00",0.0,2.3,87.5,1008.6,279.8,1.6,2.2,312.4,0.00,0.5,6.7,"19:59:04",1
"19/01/21","20:10",0.0,2.2,88.6,1008.6,293.8,1.6,2.6,307.7,0.00,0.6,6.6,"20:07:20",1
"19/01/21","20:20",0.0,1.8,88.9,1008.3,322.1,2.5,3.6,326.6,0.00,0.2,6.7,"20:13:28",1
"19/01/21","20:30",0.0,1.8,90.3,1008.6,320.2,2.3,3.1,324.7,0.00,0.4,6.5,"20:23:04",1
"19/01/21","20:40",0.0,1.6,90.6,1008.3,310.3,2.0,2.7,315.7,0.00,0.3,6.3,"20:32:08",1
"19/01/21","20:50",0.0,1.5,91.4,1008.3,288.4,1.6,2.2,318.2,0.00,0.3,6.5,"20:41:28",1
"19/01/21","21:00",0.0,1.5,91.6,1008.3,305.8,1.8,2.8,324.7,0.00,0.3,6.0,"20:58:56",1
"19/01/21","21:10",0.0,1.4,91.8,1008.1,309.1,2.2,3.4,317.1,0.00,0.3,6.1,"21:03:12",1
"19/01/21","21:20",0.0,1.2,91.9,1008.3,299.2,0.7,1.6,312.6,0.00,0.1,6.2,"21:19:52",1
"19/01/21","21:30",0.0,1.0,92.7,1008.1,319.4,1.7,2.2,322.0,0.00,0.0,5.9,"21:26:00",1
"19/01/21","21:40",0.0,0.5,92.2,1008.1,319.7,1.8,3.3,322.2,0.00,-0.6,5.8,"21:30:32",1
"19/01/21","21:50",0.0,0.3,93.4,1008.1,303.2,0.8,1.3,301.5,0.00,-0.6,5.8,"21:44:16",1
"19/01/21","22:00",0.0,0.2,93.5,1008.1,290.2,0.3,1.1,317.5,0.00,-0.7,5.9,"21:59:28",1
"19/01/21","22:10",0.0,0.1,93.6,1007.8,322.8,1.7,2.2,318.2,0.00,-0.8,5.7,"22:04:32",1
"19/01/21","22:20",0.0,0.1,94.6,1008.1,322.7,1.8,2.5,324.1,0.00,-0.6,5.7,"22:13:04",1
"19/01/21","22:30",0.0,0.7,95.3,1008.3,326.0,1.8,2.7,334.5,0.00,0.1,5.6,"22:24:00",1
"19/01/21","22:40",0.0,0.6,94.4,1008.3,309.3,1.5,2.6,322.6,0.00,-0.2,5.5,"22:37:04",1
"19/01/21","22:50",0.0,0.5,95.1,1008.6,306.1,1.2,2.5,330.8,0.00,-0.2,5.5,"22:44:40",1
"19/01/21","23:00",0.0,0.7,95.3,1008.3,324.2,1.6,2.8,318.4,0.00,0.1,5.5,"22:57:20",1
"19/01/21","23:10",0.0,0.5,95.4,1008.8,307.9,1.5,2.2,330.2,0.00,-0.1,5.5,"23:08:16",1
"19/01/21","23:20",0.0,0.4,95.9,1009.0,311.0,1.6,2.7,328.5,0.00,-0.1,5.4,"23:10:24",1
"19/01/21","23:30",0.0,0.2,95.4,1008.3,306.4,1.2,1.9,336.0,0.00,-0.4,5.6,"23:26:16",1
"19/01/21","23:40",0.0,0.1,95.9,1008.3,315.6,1.6,2.9,327.1,0.00,-0.4,5.4,"23:36:32",1
"19/01/21","23:50",0.0,-0.2,96.0,1008.3,309.7,2.0,3.4,319.3,0.00,-0.7,5.0,"23:48:32",1
"19/01/21","24:00",0.0,-0.2,96.9,1008.3,322.6,2.2,2.9,324.7,0.00,-0.6,5.2,"23:51:36",1
